QPF
0.06 0.05 0.04 0.03 0.03 0.04 0.05 0.06 0.08 0.08 0.05 0.05 0.08 0.11 0.10 0.09 0.10 0.08 0.06 0.05 0.04 0.04 0.03 0.02 0.01 0.01 0.01 0.00 0.01 0.01 0.01 0.01 0.01 0.01 0.01 0.02 0.02 0.02
0.07 0.06 0.05 0.04 0.03 0.04 0.04 0.04 0.05 0.06 0.06 0.06 0.08 0.14 0.12 0.10 0.11 0.11 0.10 0.09 0.08 0.08 0.07 0.06 0.04 0.03 0.02 0.01 0.01 0.00 0.00 0.00 0.01 0.01 0.01 0.01 0.01 0.00
0.07 0.06 0.06 0.06 0.05 0.05 0.07 0.07 0.07 0.07 0.07 0.08 0.08 0.08 0.08 0.08 0.08 0.09 0.10 0.11 0.11 0.10 0.08 0.06 0.05 0.04 0.03 0.03 0.02 0.02 0.01 0.01 0.01 0.01 0.01 0.01 0.00 0.01
0.08 0.07 0.08 0.07 0.05 0.05 0.07 0.08 0.08 0.07 0.07 0.08 0.08 0.07 0.06 0.07 0.07 0.06 0.07 0.07 0.08 0.08 0.07 0.06 0.05 0.05 0.04 0.04 0.03 0.03 0.02 0.02 0.02 0.02 0.01 0.01 0.01 0.01
0.09 0.08 0.08 0.07 0.05 0.05 0.04 0.04 0.05 0.05 0.05 0.05 0.06 0.06 0.05 0.05 0.05 0.05 0.04 0.05 0.06 0.07 0.08 0.07 0.06 0.05 0.05 0.04 0.03 0.03 0.02 0.02 0.02 0.02 0.02 0.02 0.03 0.03
0.09 0.09 0.09 0.07 0.05 0.05 0.04 0.05 0.05 0.05 0.05 0.06 0.06 0.06 0.06 0.05 0.04 0.03 0.03 0.03 0.03 0.04 0.06 0.08 0.07 0.06 0.05 0.05 0.04 0.04 0.03 0.03 0.03 0.03 0.03 0.03 0.04 0.04
0.07 0.08 0.08 0.07 0.06 0.05 0.04 0.04 0.04 0.06 0.07 0.07 0.08 0.07 0.07 0.06 0.05 0.04 0.04 0.04 0.03 0.04 0.06 0.06 0.05 0.04 0.04 0.04 0.05 0.05 0.06 0.06 0.06 0.07 0.06 0.06 0.05 0.04
0.09 0.09 0.09 0.08 0.07 0.05 0.04 0.03 0.03 0.04 0.04 0.05 0.05 0.05 0.06 0.05 0.05 0.05 0.05 0.04 0.05 0.05 0.05 0.06 0.03 0.03 0.03 0.03 0.03 0.03 0.03 0.04 0.04 0.04 0.04 0.05 0.04 0.04
0.14 0.13 0.10 0.08 0.07 0.05 0.04 0.04 0.04 0.04 0.04 0.03 0.04 0.03 0.03 0.03 0.03 0.03 0.03 0.03 0.04 0.04 0.04 0.05 0.04 0.03 0.03 0.04 0.04 0.03 0.03 0.03 0.03 0.02 0.02 0.02 0.02 0.02
0.12 0.11 0.10 0.08 0.07 0.06 0.05 0.04 0.03 0.03 0.02 0.02 0.02 0.01 0.01 0.01 0.01 0.01 0.01 0.02 0.02 0.02 0.02 0.03 0.03 0.03 0.03 0.03 0.03 0.03 0.02 0.02 0.01 0.01 0.01 0.01 0.01 0.01
0.06 0.05 0.06 0.05 0.06 0.06 0.05 0.04 0.04 0.03 0.03 0.02 0.02 0.01 0.01 0.01 0.00 0.00 0.01 0.01 0.01 0.01 0.01 0.01 0.02 0.02 0.03 0.03 0.03 0.03 0.03 0.02 0.02 0.02 0.01 0.01 0.01 0.01
0.04 0.04 0.04 0.03 0.03 0.03 0.03 0.03 0.03 0.03 0.02 0.02 0.01 0.01 0.00 0.00 0.00 0.00 0.00 0.00 0.00 0.01 0.01 0.01 0.01 0.01 0.01 0.01 0.01 0.01 0.01 0.01 0.01 0.01 0.01 0.01 0.01 0.01
0.05 0.05 0.05 0.04 0.03 0.02 0.02 0.01 0.01 0.01 0.01 0.01 0.01 0.00 0.00 0.00 0.00 0.00 0.00 0.00 0.00 0.00 0.00 0.00 0.00 0.00 0.01 0.00 0.00 0.00 0.00 0.00 0.00 0.00 0.00 0.00 0.00 0.00
0.04 0.04 0.03 0.02 0.02 0.02 0.02 0.01 0.01 0.01 0.01 0.01 0.01 0.01 0.01 0.00 0.00 0.00 0.00 0.00 0.00 0.00 0.00 0.00 0.00 0.01 0.01 0.01 0.01 0.01 0.00 0.00 0.00 0.00 0.00 0.00 0.00 0.01
0.03 0.03 0.03 0.03 0.03 0.03 0.03 0.02 0.02 0.01 0.01 0.01 0.01 0.02 0.01 0.01 0.01 0.01 0.01 0.01 0.01 0.01 0.01 0.01 0.01 0.01 0.01 0.01 0.01 0.01 0.01 0.00 0.00 0.00 0.00 0.00 0.00 0.00
0.04 0.05 0.04 0.04 0.03 0.03 0.03 0.02 0.02 0.02 0.02 0.02 0.03 0.03 0.03 0.03 0.03 0.03 0.03 0.04 0.03 0.03 0.02 0.01 0.01 0.01 0.00 0.00 0.00 0.00 0.00 0.00 0.00 0.00 0.00 0.00 0.00 0.01
0.04 0.03 0.03 0.02 0.02 0.02 0.02 0.02 0.02 0.02 0.02 0.02 0.03 0.03 0.03 0.02 0.02 0.02 0.02 0.02 0.02 0.01 0.01 0.01 0.00 0.00 0.00 0.00 0.00 0.00 0.00 0.00 0.00 0.00 0.00 0.00 0.00 0.01
0.03 0.02 0.02 0.02 0.02 0.02 0.01 0.01 0.01 0.01 0.01 0.01 0.01 0.01 0.00 0.00 0.00 0.00 0.00 0.00 0.00 0.00 0.00 0.00 0.00 0.00 0.00 0.00 0.00 0.00 0.00 0.00 0.00 0.00 0.00 0.00 0.01 0.01
0.02 0.02 0.02 0.02 0.01 0.01 0.01 0.01 0.00 0.00 0.00 0.00 0.00 0.00 0.00 0.00 0.00 0.00 0.00 0.00 0.00 0.00 0.00 0.00 0.00 0.00 0.00 0.00 0.00 0.00 0.00 0.00 0.00 0.00 0.00 0.01 0.01 0.00
0.01 0.01 0.01 0.01 0.01 0.01 0.01 0.00 0.00 0.00 0.00 0.00 0.00 0.00 0.00 0.00 0.00 0.00 0.00 0.00 0.00 0.00 0.00 0.00 0.00 0.00 0.00 0.00 0.00 0.00 0.00 0.00 0.00 0.00 0.00 0.00 0.00 0.00
0.01 0.01 0.01 0.01 0.00 0.00 0.00 0.00 0.00 0.00 0.00 0.00 0.00 0.00 0.00 0.00 0.00 0.00 0.00 0.00 0.00 0.00 0.00 0.00 0.00 0.00 0.00 0.00 0.00 0.00 0.00 0.00 0.00 0.00 0.00 0.00 0.00 0.00
0.01 0.01 0.00 0.00 0.00 0.00 0.00 0.00 0.00 0.00 0.00 0.00 0.00 0.00 0.00 0.00 0.00 0.00 0.00 0.00 0.00 0.00 0.00 0.00 0.00 0.00 0.00 0.00 0.00 0.00 0.00 0.00 0.00 0.00 0.00 0.00 0.01 0.00
0.00 0.00 0.00 0.00 0.00 0.00 0.00 0.00 0.00 0.00 0.00 0.00 0.00 0.00 0.00 0.00 0.00 0.00 0.00 0.00 0.00 0.00 0.00 0.00 0.00 0.00 0.00 0.00 0.00 0.00 0.00 0.00 0.00 0.00 0.00 0.00 0.00 0.00
MSLP
1018.35 1018.64 1018.92 1019.19 1019.43 1019.61 1019.74 1019.82 1019.86 1019.88 1019.89 1019.93 1019.98 1020.07 1020.19 1020.33 1020.48 1020.65 1020.83 1021.03 1021.26 1021.51 1021.80 1022.12 1022.45 1022.78 1023.10 1023.39 1023.65 1023.87 1024.05 1024.20 1024.32 1024.41 1024.48 1024.50 1024.48 1024.41
1018.00 1018.27 1018.51 1018.73 1018.92 1019.06 1019.17 1019.27 1019.35 1019.45 1019.58 1019.73 1019.91 1020.12 1020.33 1020.55 1020.75 1020.95 1021.15 1021.35 1021.57 1021.83 1022.12 1022.45 1022.80 1023.15 1023.50 1023.82 1024.10 1024.33 1024.52 1024.68 1024.80 1024.90 1024.96 1024.98 1024.96 1024.88
1017.63 1017.88 1018.10 1018.28 1018.43 1018.55 1018.66 1018.79 1018.94 1019.13 1019.36 1019.65 1019.96 1020.29 1020.61 1020.91 1021.17 1021.40 1021.62 1021.82 1022.04 1022.29 1022.58 1022.90 1023.25 1023.61 1023.96 1024.28 1024.56 1024.78 1024.96 1025.10 1025.21 1025.29 1025.34 1025.36 1025.33 1025.25
1017.30 1017.56 1017.77 1017.95 1018.08 1018.21 1018.34 1018.51 1018.73 1019.01 1019.36 1019.76 1020.19 1020.63 1021.05 1021.42 1021.74 1022.00 1022.23 1022.43 1022.64 1022.88 1023.15 1023.46 1023.80 1024.14 1024.47 1024.76 1025.00 1025.20 1025.34 1025.45 1025.52 1025.57 1025.61 1025.61 1025.58 1025.50
1017.12 1017.40 1017.63 1017.82 1017.98 1018.13 1018.30 1018.52 1018.81 1019.17 1019.62 1020.11 1020.64 1021.17 1021.66 1022.08 1022.43 1022.72 1022.95 1023.15 1023.35 1023.57 1023.82 1024.10 1024.40 1024.71 1024.99 1025.24 1025.43 1025.56 1025.65 1025.70 1025.72 1025.74 1025.74 1025.73 1025.69 1025.61
1017.15 1017.47 1017.74 1017.97 1018.17 1018.37 1018.59 1018.87 1019.21 1019.64 1020.15 1020.71 1021.30 1021.87 1022.39 1022.85 1023.22 1023.51 1023.74 1023.93 1024.11 1024.31 1024.53 1024.78 1025.04 1025.29 1025.52 1025.70 1025.82 1025.88 1025.89 1025.87 1025.84 1025.80 1025.77 1025.73 1025.68 1025.60
1017.41 1017.78 1018.11 1018.40 1018.66 1018.92 1019.19 1019.51 1019.91 1020.37 1020.91 1021.49 1022.09 1022.67 1023.20 1023.66 1024.02 1024.31 1024.53 1024.71 1024.88 1025.06 1025.25 1025.46 1025.68 1025.88 1026.04 1026.14 1026.18 1026.16 1026.09 1025.99 1025.89 1025.79 1025.72 1025.65 1025.58 1025.49
1017.89 1018.32 1018.71 1019.07 1019.39 1019.70 1020.02 1020.38 1020.79 1021.27 1021.80 1022.37 1022.95 1023.50 1024.00 1024.43 1024.78 1025.06 1025.27 1025.44 1025.60 1025.76 1025.94 1026.12 1026.29 1026.43 1026.53 1026.56 1026.52 1026.42 1026.27 1026.10 1025.92 1025.76 1025.63 1025.52 1025.43 1025.31
1018.54 1019.02 1019.46 1019.87 1020.25 1020.61 1020.97 1021.34 1021.75 1022.21 1022.71 1023.23 1023.76 1024.26 1024.72 1025.11 1025.44 1025.69 1025.90 1026.07 1026.23 1026.39 1026.55 1026.71 1026.85 1026.95 1026.99 1026.96 1026.85 1026.67 1026.45 1026.20 1025.96 1025.73 1025.55 1025.39 1025.25 1025.11
1019.27 1019.79 1020.28 1020.74 1021.16 1021.55 1021.92 1022.29 1022.68 1023.10 1023.54 1024.00 1024.46 1024.90 1025.30 1025.66 1025.95 1026.20 1026.40 1026.58 1026.75 1026.91 1027.07 1027.22 1027.34 1027.41 1027.41 1027.33 1027.16 1026.93 1026.65 1026.34 1026.03 1025.75 1025.50 1025.28 1025.09 1024.91
1020.03 1020.57 1021.09 1021.58 1022.02 1022.42 1022.79 1023.15 1023.50 1023.86 1024.24 1024.63 1025.02 1025.40 1025.75 1026.06 1026.34 1026.58 1026.79 1026.98 1027.16 1027.34 1027.50 1027.65 1027.75 1027.80 1027.78 1027.67 1027.47 1027.20 1026.87 1026.51 1026.16 1025.82 1025.51 1025.23 1024.98 1024.74
1020.78 1021.33 1021.86 1022.36 1022.81 1023.21 1023.56 1023.89 1024.19 1024.50 1024.81 1025.13 1025.46 1025.78 1026.09 1026.37 1026.63 1026.87 1027.09 1027.29 1027.49 1027.68 1027.85 1028.00 1028.10 1028.14 1028.10 1027.97 1027.75 1027.46 1027.11 1026.73 1026.33 1025.94 1025.58 1025.24 1024.93 1024.62
1021.51 1022.06 1022.59 1023.08 1023.52 1023.90 1024.23 1024.52 1024.78 1025.03 1025.29 1025.55 1025.82 1026.10 1026.37 1026.64 1026.89 1027.12 1027.35 1027.56 1027.77 1027.96 1028.13 1028.27 1028.37 1028.41 1028.36 1028.23 1028.01 1027.72 1027.36 1026.96 1026.54 1026.11 1025.70 1025.30 1024.92 1024.54
1022.25 1022.78 1023.29 1023.76 1024.18 1024.54 1024.83 1025.08 1025.31 1025.51 1025.73 1025.94 1026.18 1026.42 1026.67 1026.92 1027.15 1027.39 1027.60 1027.81 1028.01 1028.20 1028.36 1028.49 1028.58 1028.61 1028.56 1028.43 1028.22 1027.93 1027.58 1027.18 1026.74 1026.29 1025.84 1025.39 1024.94 1024.49
1022.99 1023.50 1023.98 1024.43 1024.81 1025.13 1025.40 1025.61 1025.80 1025.98 1026.16 1026.36 1026.56 1026.79 1027.02 1027.24 1027.47 1027.68 1027.88 1028.07 1028.25 1028.41 1028.55 1028.66 1028.73 1028.74 1028.69 1028.57 1028.37 1028.09 1027.75 1027.35 1026.91 1026.44 1025.95 1025.45 1024.94 1024.43
1023.73 1024.21 1024.66 1025.06 1025.41 1025.70 1025.93 1026.12 1026.29 1026.45 1026.61 1026.79 1026.99 1027.20 1027.41 1027.62 1027.83 1028.01 1028.19 1028.34 1028.48 1028.60 1028.70 1028.77 1028.81 1028.81 1028.75 1028.62 1028.43 1028.16 1027.83 1027.44 1027.00 1026.51 1025.99 1025.45 1024.89 1024.30
1024.43 1024.87 1025.27 1025.63 1025.94 1026.19 1026.40 1026.57 1026.73 1026.89 1027.06 1027.24 1027.43 1027.63 1027.84 1028.03 1028.21 1028.36 1028.49 1028.60 1028.69 1028.76 1028.81 1028.84 1028.84 1028.81 1028.74 1028.60 1028.41 1028.15 1027.82 1027.42 1026.97 1026.47 1025.93 1025.34 1024.73 1024.09
1025.04 1025.42 1025.77 1026.08 1026.35 1026.57 1026.76 1026.93 1027.09 1027.26 1027.44 1027.64 1027.84 1028.04 1028.24 1028.41 1028.56 1028.68 1028.76 1028.82 1028.86 1028.87 1028.88 1028.86 1028.82 1028.76 1028.66 1028.51 1028.30 1028.03 1027.69 1027.29 1026.82 1026.30 1025.72 1025.10 1024.45 1023.76
1025.48 1025.81 1026.10 1026.36 1026.59 1026.79 1026.97 1027.15 1027.33 1027.52 1027.73 1027.95 1028.17 1028.38 1028.56 1028.72 1028.85 1028.93 1028.98 1028.99 1028.98 1028.94 1028.90 1028.84 1028.77 1028.67 1028.53 1028.35 1028.12 1027.82 1027.46 1027.03 1026.54 1025.99 1025.38 1024.73 1024.04 1023.32
1025.73 1025.99 1026.23 1026.44 1026.64 1026.83 1027.01 1027.21 1027.42 1027.65 1027.89 1028.13 1028.37 1028.59 1028.78 1028.93 1029.03 1029.09 1029.10 1029.08 1029.03 1028.97 1028.88 1028.79 1028.68 1028.55 1028.38 1028.16 1027.89 1027.56 1027.16 1026.69 1026.16 1025.57 1024.93 1024.26 1023.54 1022.81
1025.78 1025.98 1026.16 1026.34 1026.52 1026.71 1026.91 1027.14 1027.38 1027.64 1027.92 1028.19 1028.46 1028.69 1028.88 1029.02 1029.11 1029.15 1029.14 1029.10 1029.03 1028.94 1028.83 1028.71 1028.57 1028.40 1028.20 1027.94 1027.62 1027.24 1026.79 1026.27 1025.70 1025.07 1024.41 1023.71 1022.98 1022.25
1025.66 1025.81 1025.96 1026.12 1026.30 1026.49 1026.72 1026.97 1027.25 1027.55 1027.86 1028.16 1028.44 1028.67 1028.86 1029.00 1029.08 1029.11 1029.09 1029.03 1028.95 1028.85 1028.73 1028.60 1028.43 1028.24 1027.99 1027.69 1027.32 1026.89 1026.38 1025.81 1025.19 1024.53 1023.84 1023.13 1022.41 1021.68
1025.44 1025.56 1025.70 1025.85 1026.03 1026.25 1026.50 1026.79 1027.10 1027.43 1027.75 1028.06 1028.35 1028.58 1028.77 1028.90 1028.96 1028.98 1028.96 1028.90 1028.82 1028.71 1028.59 1028.44 1028.26 1028.03 1027.75 1027.40 1026.99 1026.50 1025.94 1025.32 1024.66 1023.97 1023.26 1022.55 1021.85 1021.15
Thickness
5724 5722 5721 5721 5720 5720 5718 5714 5706 5698 5697 5701 5703 5704 5703 5702 5700 5698 5696 5693 5691 5688 5685 5682 5680 5677 5675 5673 5671 5669 5667 5665 5663 5661 5660 5658 5657 5656
5721 5719 5718 5717 5717 5717 5715 5713 5710 5703 5695 5696 5696 5696 5696 5695 5691 5689 5686 5684 5681 5679 5676 5673 5671 5668 5665 5663 5661 5659 5657 5655 5653 5651 5650 5648 5647 5646
5717 5715 5714 5713 5712 5711 5710 5709 5706 5702 5693 5689 5688 5687 5686 5684 5681 5679 5676 5673 5670 5668 5665 5662 5659 5657 5654 5652 5650 5647 5645 5643 5641 5640 5638 5637 5635 5634
5711 5710 5709 5708 5706 5705 5703 5701 5699 5697 5691 5682 5678 5676 5674 5673 5671 5668 5665 5662 5659 5656 5653 5650 5648 5645 5642 5640 5637 5634 5632 5630 5628 5627 5625 5624 5622 5621
5706 5704 5702 5700 5698 5696 5695 5693 5691 5688 5684 5677 5669 5666 5663 5661 5659 5656 5653 5650 5648 5643 5641 5638 5635 5631 5629 5626 5623 5621 5619 5617 5615 5613 5611 5610 5608 5607
5699 5697 5695 5693 5690 5688 5686 5684 5681 5677 5672 5666 5659 5654 5651 5649 5646 5643 5638 5636 5633 5630 5627 5624 5621 5618 5615 5612 5610 5607 5605 5602 5600 5598 5597 5595 5594 5593
5689 5688 5686 5685 5683 5680 5677 5674 5672 5666 5660 5654 5647 5642 5638 5635 5632 5629 5625 5622 5619 5616 5613 5609 5606 5603 5600 5597 5595 5593 5590 5588 5585 5583 5581 5580 5578 5577
5678 5676 5675 5673 5671 5669 5667 5664 5661 5656 5649 5642 5636 5631 5625 5622 5620 5618 5613 5609 5603 5601 5598 5593 5591 5587 5585 5582 5579 5577 5574 5572 5570 5567 5565 5564 5562 5560
5670 5668 5665 5661 5659 5656 5653 5650 5646 5643 5639 5633 5625 5619 5614 5611 5608 5604 5599 5595 5589 5586 5583 5578 5575 5571 5569 5566 5563 5560 5558 5555 5553 5551 5549 5547 5545 5543
5660 5658 5654 5650 5647 5644 5640 5635 5630 5626 5623 5620 5614 5608 5604 5600 5597 5593 5588 5582 5576 5572 5570 5563 5559 5555 5553 5550 5547 5545 5542 5539 5536 5533 5531 5529 5527 5525
5648 5646 5643 5640 5636 5633 5629 5622 5616 5611 5608 5605 5601 5597 5592 5589 5585 5581 5574 5568 5560 5556 5554 5548 5542 5539 5536 5533 5531 5528 5525 5522 5519 5516 5513 5511 5509 5507
5637 5633 5630 5627 5624 5620 5616 5611 5605 5599 5596 5591 5587 5583 5579 5575 5572 5567 5562 5554 5547 5541 5538 5534 5528 5523 5519 5517 5515 5512 5508 5505 5502 5499 5496 5493 5491 5489
5626 5620 5616 5614 5611 5607 5603 5599 5595 5589 5584 5579 5573 5569 5565 5561 5557 5553 5549 5543 5535 5529 5526 5521 5514 5508 5502 5499 5497 5496 5492 5488 5485 5482 5478 5475 5473 5470
5614 5609 5605 5602 5599 5595 5590 5586 5582 5578 5571 5566 5560 5554 5550 5546 5542 5539 5535 5530 5525 5518 5514 5509 5502 5495 5489 5483 5480 5479 5477 5473 5469 5466 5463 5460 5457 5455
5603 5598 5594 5590 5586 5582 5578 5574 5570 5564 5558 5552 5546 5540 5536 5533 5529 5525 5521 5516 5512 5507 5502 5497 5491 5485 5478 5472 5467 5464 5461 5459 5457 5453 5450 5447 5444 5442
5591 5586 5582 5578 5574 5570 5565 5560 5556 5551 5546 5539 5533 5529 5525 5521 5516 5511 5506 5502 5497 5493 5490 5486 5481 5476 5469 5464 5458 5453 5449 5445 5445 5443 5439 5436 5434 5431
5580 5575 5570 5565 5561 5556 5552 5547 5543 5539 5533 5528 5523 5517 5512 5508 5504 5500 5495 5489 5484 5479 5476 5474 5471 5466 5462 5456 5450 5445 5441 5438 5436 5434 5430 5426 5424 5422
5571 5564 5559 5554 5549 5544 5540 5535 5531 5527 5522 5517 5511 5506 5501 5497 5493 5489 5484 5479 5474 5469 5466 5463 5459 5455 5450 5448 5444 5438 5433 5430 5428 5426 5421 5416 5415 5415
5559 5553 5549 5544 5539 5534 5529 5525 5520 5516 5512 5507 5502 5497 5493 5488 5484 5479 5474 5470 5465 5461 5457 5454 5449 5444 5437 5434 5434 5434 5428 5425 5421 5418 5415 5411 5408 5410
5549 5544 5539 5535 5530 5525 5520 5516 5511 5506 5502 5497 5493 5488 5484 5480 5475 5470 5466 5461 5457 5453 5449 5446 5442 5437 5431 5427 5425 5425 5426 5420 5416 5412 5411 5409 5407 5407
5539 5535 5531 5527 5522 5518 5513 5508 5503 5498 5494 5489 5484 5480 5476 5472 5467 5463 5459 5456 5451 5446 5442 5440 5438 5435 5430 5424 5419 5418 5419 5419 5414 5410 5408 5405 5402 5401
5532 5527 5523 5519 5514 5510 5505 5500 5495 5490 5486 5481 5477 5473 5469 5465 5461 5457 5453 5448 5444 5440 5437 5435 5434 5430 5424 5419 5415 5413 5413 5414 5413 5410 5408 5404 5399 5396
5525 5521 5516 5512 5507 5503 5498 5493 5489 5484 5479 5475 5471 5467 5463 5459 5455 5451 5447 5444 5440 5436 5433 5430 5427 5424 5420 5416 5412 5409 5409 5408 5407 5405 5406 5406 5403 5402